This is the latest recevied weather packets stored in our database for station/object 4S6DRJ-13. If no packets are shown the sender has not sent any weather packets the latest 10 day(s).
| Time | Temp. | Humidity | Pressure | Rain* | Wind** | Luminosity | Snow |
|---|---|---|---|---|---|---|---|
| 1787827911 | 29.44° C | 78% | 1008.2 hPa | 0 mm | 3.13 m/s, 316° | 311 W/m² | - |
| 1787827850 | 29.44° C | 78% | 1008 hPa | 0 mm | 0.89 m/s, 298° | 268 W/m² | - |
| 1787827789 | 29.44° C | 78% | 1008.2 hPa | 0 mm | 1.79 m/s, 224° | 262 W/m² | - |
| 1787827728 | 29.44° C | 78% | 1008.1 hPa | 0 mm | 0 m/s | 242 W/m² | - |
| 1787827667 | 29.44° C | 78% | 1008.1 hPa | 0 mm | 1.79 m/s, 208° | 258 W/m² | - |
| 1787827606 | 29.44° C | 77% | 1008.2 hPa | 0 mm | 2.24 m/s, 240° | 293 W/m² | - |
| 1787827545 | 29.44° C | 78% | 1008 hPa | 0 mm | 2.68 m/s, 258° | 231 W/m² | - |
| 1787827484 | 29.44° C | 78% | 1008.1 hPa | 0 mm | 3.13 m/s, 110° | 240 W/m² | - |
| 1787827423 | 29.44° C | 78% | 1008.2 hPa | 0 mm | 1.34 m/s, 226° | 257 W/m² | - |
| 1787827362 | 29.44° C | 77% | 1008.2 hPa | 0 mm | 2.24 m/s, 223° | 283 W/m² | - |
| 1787827301 | 29.44° C | 77% | 1008.2 hPa | 0 mm | 1.79 m/s, 274° | 288 W/m² | - |
| 1787827242 | 29.44° C | 77% | 1008.2 hPa | 0 mm | 2.68 m/s, 277° | 272 W/m² | - |
| 1787827179 | 29.44° C | 77% | 1008 hPa | 0 mm | 1.34 m/s, 287° | 263 W/m² | - |
| 1787827118 | 29.44° C | 77% | 1008.2 hPa | 0 mm | 1.34 m/s, 226° | 270 W/m² | - |
| 1787827057 | 29.44° C | 77% | 1008.1 hPa | 0 mm | 2.68 m/s, 163° | 236 W/m² | - |
| 1787826996 | 29.44° C | 77% | 1008.1 hPa | 0 mm | 1.34 m/s, 268° | 257 W/m² | - |
| 1787826935 | 29.44° C | 77% | 1008.3 hPa | 0 mm | 0.89 m/s, 278° | 280 W/m² | - |
| 1787826874 | 29.44° C | 77% | 1008.2 hPa | 0 mm | 1.34 m/s, 283° | 300 W/m² | - |
| 1787826813 | 29.44° C | 77% | 1008.2 hPa | 0 mm | 0.89 m/s, 285° | 311 W/m² | - |
| 1787826752 | 29.44° C | 77% | 1008.3 hPa | 0 mm | 3.13 m/s, 357° | 276 W/m² | - |
| 1787826691 | 29.44° C | 77% | 1008.3 hPa | 0 mm | 0.89 m/s, 264° | 334 W/m² | - |
| 1787826630 | 29.44° C | 77% | 1008.3 hPa | 0 mm | 0.89 m/s, 221° | 280 W/m² | - |
| 1787826575 | 29.44° C | 76% | 1008.2 hPa | 0 mm | 3.13 m/s, 303° | 293 W/m² | - |
| 1787826508 | 29.44° C | 77% | 1008.2 hPa | 0 mm | 1.34 m/s, 114° | 257 W/m² | - |
| 1787826447 | 29.44° C | 77% | 1008.2 hPa | 0 mm | 0.89 m/s, 276° | 237 W/m² | - |
* Rain latest hour (hover to see other rain measurements)
** Current wind speed in m/s (hover to see current wind gust speed)